Theta_e
323 336 350 354 356 356 356 355 354 353 354 355 354 354 354 354 354 353 354 354 353 354 352 353 351 350 349 349 348 348 348 348 346 346 348 348 348 348 348 347 347 346 348
329 337 346 353 353 355 355 354 353 352 353 355 355 354 355 355 354 354 354 353 353 354 353 353 353 353 351 350 348 348 348 347 346 344 345 347 347 348 347 347 347 347 347
332 338 345 350 353 353 353 353 352 352 353 355 356 355 355 354 354 354 354 352 352 354 354 354 354 352 351 349 348 347 347 346 345 343 342 344 344 347 346 347 347 346 346
332 339 343 346 351 352 352 352 352 351 352 354 356 355 355 354 354 355 354 351 351 353 354 354 353 351 350 349 348 347 346 344 342 340 339 339 341 345 347 346 347 346 347
324 337 342 344 350 352 352 352 351 351 351 354 356 356 355 354 354 354 353 352 352 353 352 351 352 350 349 348 346 345 344 342 339 339 341 340 339 341 345 346 346 346 345
318 336 341 343 350 351 351 351 351 351 351 353 355 355 355 354 353 352 352 351 351 351 350 352 351 349 348 346 345 343 343 341 338 340 340 342 340 342 345 345 344 344 344
315 327 341 342 347 350 351 351 350 350 350 351 353 354 353 353 352 351 351 350 351 350 350 350 349 345 347 346 345 343 342 339 341 341 341 340 339 343 343 342 343 343 343
309 319 335 336 339 343 346 349 349 349 349 350 351 352 353 352 351 351 350 350 350 349 349 349 347 346 345 345 344 342 338 335 337 340 340 341 342 344 343 342 342 342 342
305 312 322 333 339 333 337 340 344 346 347 347 348 349 349 348 348 349 348 349 350 349 348 346 345 345 344 344 343 338 333 331 338 337 337 338 338 339 338 337 337 339 340
302 306 313 325 336 342 342 333 334 339 342 343 343 342 340 338 341 341 340 345 348 348 347 344 342 341 343 342 338 333 329 328 334 333 335 336 338 339 337 336 336 336 337
299 301 305 311 315 330 341 340 331 332 334 335 337 334 333 346 346 341 340 340 345 344 344 342 341 340 337 334 332 328 327 331 329 329 330 331 334 333 332 330 330 332 335
295 298 302 305 308 319 336 339 338 343 342 343 344 345 345 345 346 343 336 333 337 338 340 340 339 334 330 333 330 325 329 327 326 326 327 329 330 328 327 325 325 326 331
294 297 300 302 306 313 324 336 338 340 341 341 343 343 343 343 340 340 341 338 341 330 339 338 333 329 329 327 327 325 323 323 323 323 324 326 327 326 325 325 325 325 328
293 295 298 301 304 307 315 330 336 338 338 337 340 341 341 339 339 338 338 339 338 338 336 333 324 322 323 322 322 320 319 318 318 319 321 321 325 325 326 325 325 325 327
291 294 295 299 302 304 308 316 332 336 338 337 337 339 340 338 337 336 336 336 335 333 329 320 316 316 316 316 316 315 314 313 314 315 318 316 321 325 325 326 325 325 326
291 292 294 297 301 305 306 312 326 333 336 336 337 337 338 338 336 335 334 332 330 326 322 317 315 312 313 313 310 309 309 310 311 312 314 318 320 322 327 326 325 324 325
290 292 293 296 301 304 307 313 318 330 332 334 336 336 336 336 334 333 331 329 324 322 316 314 310 309 307 308 306 305 305 305 306 308 310 317 318 318 324 329 326 327 326
291 292 294 297 300 302 305 309 317 327 331 332 334 334 334 333 333 332 328 324 321 316 311 309 307 306 304 304 302 302 301 302 302 303 306 313 316 319 322 324 327 325 327
290 291 293 296 300 301 304 309 312 321 329 331 331 332 332 331 329 328 324 320 315 311 307 305 303 304 301 298 298 299 299 300 301 300 303 309 313 315 318 317 316 319 321
290 291 292 294 297 300 302 307 313 317 326 329 330 329 327 327 327 326 321 312 310 306 302 302 299 300 299 298 297 296 297 299 300 301 301 304 310 310 310 310 313 312 315
290 290 291 291 294 297 298 302 306 312 324 326 328 328 327 326 324 321 314 312 310 305 302 301 300 298 296 297 296 296 297 298 298 299 300 302 303 305 305 305 307 308 309
287 289 290 291 293 296 298 301 308 317 323 324 325 325 324 323 322 319 313 310 309 304 301 299 299 298 295 298 296 296 294 296 297 297 298 298 301 303 302 301 302 303 304
286 287 288 290 292 295 298 301 307 317 321 321 320 321 322 321 319 315 312 310 306 304 301 300 300 299 295 297 297 296 292 294 295 295 296 297 298 300 302 301 301 301 301
286 288 288 289 291 294 297 299 301 307 313 318 319 320 320 320 319 315 312 309 306 305 301 301 301 300 299 296 294 294 296 297 295 290 295 295 296 297 300 300 300 300 301
285 286 287 288 289 292 296 301 304 308 315 317 318 317 317 317 317 314 312 309 307 306 303 301 300 300 300 298 296 293 294 294 295 295 291 293 293 295 297 299 299 299 299
284 286 286 287 289 290 294 300 307 310 314 314 315 314 313 314 312 311 310 309 307 306 303 301 301 299 299 299 297 295 294 295 293 294 292 292 294 293 293 295 296 297 298
Wind_Speed
4 8 18 22 22 22 22 22 21 19 19 20 22 21 22 22 21 21 22 21 20 20 19 17 19 18 18 17 16 15 15 14 15 16 14 16 16 18 16 13 12 15 15
7 6 14 19 24 22 22 22 22 20 19 19 21 22 22 23 22 22 22 22 21 20 20 19 18 19 18 17 17 15 14 13 13 14 14 14 14 17 17 14 12 15 16
6 6 10 17 21 23 22 21 22 21 19 19 21 23 23 23 24 23 22 22 21 20 20 21 19 20 18 18 17 16 15 14 14 14 12 11 13 16 16 13 15 16 16
10 5 9 14 19 20 22 21 22 22 20 20 20 24 23 23 24 24 23 22 22 21 20 19 21 20 19 19 18 17 17 15 14 12 12 12 12 14 15 15 15 16 15
15 9 7 11 18 20 21 21 21 21 20 19 19 23 24 24 24 24 23 23 23 22 21 19 22 20 19 20 19 17 17 16 14 13 13 12 10 13 15 15 14 11 10
21 15 8 10 17 19 21 22 22 22 21 20 19 22 24 25 24 24 24 23 22 22 21 20 19 20 19 19 20 18 17 16 14 14 12 11 12 15 15 14 13 12 11
19 17 12 9 15 19 21 23 24 25 25 22 20 21 24 25 25 24 24 24 22 22 21 21 20 21 20 20 20 20 17 13 13 13 12 12 13 16 16 15 14 13 12
18 17 15 11 11 13 20 21 23 25 26 25 23 22 23 24 25 24 24 24 22 22 22 21 20 20 19 19 18 19 16 13 11 12 13 12 14 15 16 14 14 14 12
18 17 15 15 12 14 11 15 19 23 25 26 25 23 23 23 24 24 24 24 23 22 21 22 19 19 19 18 18 17 16 12 11 8 10 9 14 16 15 13 12 11 10
15 14 16 16 13 13 12 12 13 17 18 23 24 23 21 19 20 20 20 23 25 23 23 22 19 21 18 18 18 17 17 14 10 8 8 9 14 16 15 13 12 11 11
17 13 14 14 16 17 17 14 14 16 16 15 17 18 16 14 16 17 20 21 24 24 23 23 20 19 16 15 17 16 18 9 10 6 5 11 14 15 14 13 12 11 12
24 22 14 15 15 16 13 11 7 13 13 13 15 17 13 15 14 15 17 20 21 20 22 24 20 15 14 11 10 14 7 10 9 8 6 11 14 14 13 12 12 12 12
22 18 16 14 15 15 11 10 8 7 9 10 18 14 15 12 10 10 9 10 11 14 10 13 12 9 12 9 11 10 9 9 6 6 9 10 11 12 13 12 12 12 13
19 22 18 14 14 15 10 10 10 9 9 8 12 14 11 9 10 10 9 11 10 10 12 11 8 9 11 11 14 13 12 9 6 5 8 10 10 10 11 12 12 12 13
21 22 21 15 14 13 14 10 11 12 9 9 10 13 11 11 11 11 11 11 11 10 10 9 9 10 10 11 10 13 12 10 10 6 5 9 8 9 10 11 12 12 13
20 22 22 18 15 12 13 14 12 12 12 10 9 9 15 12 11 11 11 12 11 11 10 10 11 10 9 10 10 11 10 9 9 8 6 7 7 4 9 11 11 12 13
19 21 21 20 15 14 12 12 11 11 11 9 10 13 14 15 13 13 11 11 11 11 13 11 10 9 9 8 11 10 9 8 8 9 6 5 5 1 7 11 10 10 14
20 19 21 18 19 15 12 11 11 11 11 10 10 10 12 12 16 14 11 11 11 10 11 11 12 10 9 9 9 7 8 7 8 8 6 5 4 4 9 11 9 9 6
20 21 21 19 17 16 12 10 11 15 12 10 8 9 12 15 13 13 11 10 12 10 10 10 10 12 11 8 9 7 6 6 8 6 7 6 5 5 5 10 10 9 7
19 19 18 16 19 19 12 8 8 10 12 13 12 10 11 10 16 14 11 13 13 11 11 8 8 6 8 10 11 7 5 5 4 5 7 5 6 5 5 5 4 4 7
18 20 22 20 21 15 12 9 8 11 11 11 11 14 15 12 13 13 12 13 13 14 17 15 9 15 6 5 11 6 6 5 3 3 3 5 5 4 4 4 2 2 2
16 18 21 20 20 16 12 10 8 8 10 10 10 12 14 13 16 12 15 15 16 13 16 19 15 11 6 8 5 4 5 2 2 2 2 4 6 5 5 4 4 3 2
17 17 18 20 20 18 17 12 9 8 10 9 10 10 13 17 15 15 14 13 16 13 16 21 22 15 12 9 7 5 5 5 5 1 3 4 6 5 5 6 5 4 4
19 16 18 20 18 16 17 13 16 11 12 10 11 10 12 16 17 17 16 15 13 14 17 16 17 16 13 15 3 2 1 6 6 4 2 3 4 5 6 5 5 5 5
20 15 15 18 17 17 15 14 11 14 11 7 10 13 11 12 13 15 17 16 15 12 16 20 19 18 15 15 11 4 2 3 3 5 6 5 2 3 4 5 5 5 6
17 11 13 15 14 15 16 16 16 16 14 8 14 13 10 10 10 12 13 14 14 9 15 16 19 20 18 15 8 5 5 6 5 4 5 3 4 3 3 3 5 5 4
Wind_Direction
259 231 191 188 185 183 179 177 176 174 172 174 173 173 165 164 163 161 158 155 156 155 152 155 150 144 144 141 136 136 131 128 128 122 113 113 114 112 112 108 108 105 103
324 255 195 191 190 185 185 178 176 175 173 175 176 175 173 165 165 165 162 157 160 160 155 149 155 147 141 136 134 134 127 115 118 113 114 109 110 112 110 105 104 103 101
307 302 219 198 195 186 185 182 176 176 174 177 179 177 176 171 167 167 164 161 162 163 161 155 155 144 140 137 136 134 128 116 113 116 114 120 115 114 115 115 112 111 108
317 281 226 206 198 192 184 181 178 177 177 178 181 179 176 175 170 169 166 165 165 164 164 162 152 147 143 139 140 140 136 127 121 119 129 128 126 122 118 122 115 116 115
356 319 249 218 206 195 187 181 179 180 181 179 181 180 176 175 174 170 167 169 167 167 165 166 153 152 148 145 142 143 139 134 128 134 131 130 128 132 123 111 107 115 110
353 339 298 241 220 206 193 182 179 179 186 182 181 181 178 175 176 172 168 170 170 169 169 166 157 156 153 149 144 143 140 140 137 139 137 130 132 127 122 119 111 99 102
344 339 315 280 238 215 202 192 182 179 184 185 182 183 183 178 176 174 170 171 173 170 169 164 158 165 156 153 148 144 142 138 145 146 138 135 132 136 134 130 123 113 118
336 341 326 299 257 249 216 205 192 185 185 185 183 184 183 181 177 175 173 173 174 174 169 159 163 163 160 155 152 145 140 140 148 144 137 132 128 130 128 123 118 119 115
338 342 340 318 279 250 242 222 207 194 189 187 185 185 184 182 179 177 175 175 175 174 169 160 168 164 161 156 150 143 135 129 148 144 133 129 124 140 141 143 144 119 108
329 336 337 337 316 263 239 218 218 211 200 193 187 185 187 187 183 182 178 175 175 173 168 159 169 172 162 153 143 141 129 121 145 141 134 134 142 142 140 141 140 133 135
319 326 331 324 323 307 256 224 215 213 206 203 193 185 180 189 188 183 181 176 176 172 168 157 170 165 152 146 140 139 135 144 141 143 141 136 142 142 144 143 142 138 128
306 308 315 318 317 314 286 240 215 224 215 207 201 196 190 191 188 183 182 179 176 171 168 161 161 144 145 154 144 139 147 147 142 148 149 142 145 145 146 146 146 144 143
291 290 297 305 309 308 307 249 230 223 223 213 211 204 199 190 189 189 185 185 176 170 163 158 143 154 158 156 154 154 148 147 146 148 149 141 147 149 147 150 149 145 147
281 280 286 290 296 300 298 290 239 228 213 215 220 205 193 192 186 185 189 176 173 168 166 157 152 156 160 159 157 150 150 149 147 144 142 139 146 150 153 153 151 147 148
277 279 277 277 277 287 291 291 257 236 216 205 215 215 199 194 188 181 181 177 169 166 159 145 153 154 156 150 149 145 149 147 146 139 135 115 130 157 158 156 151 147 151
271 273 278 266 262 267 278 277 270 242 229 214 204 216 204 195 190 188 178 178 177 162 157 150 165 156 154 148 144 140 144 145 143 139 137 132 113 107 161 158 153 151 154
264 270 272 273 255 255 258 271 271 250 229 218 211 207 212 196 187 185 180 174 167 164 146 153 149 145 140 142 142 142 139 141 140 137 139 135 130 132 174 145 144 148 156
261 260 267 265 258 247 251 267 268 252 226 218 215 206 199 198 181 181 176 184 167 160 153 155 157 151 147 148 142 142 134 136 137 131 136 137 135 121 86 86 118 137 149
260 264 263 260 253 249 247 251 264 264 233 212 205 198 194 189 183 178 169 169 158 151 150 152 159 157 146 133 124 123 114 140 134 138 138 138 131 122 114 95 87 82 76
255 256 265 267 260 253 243 243 255 258 240 214 203 200 181 184 179 177 170 153 151 143 134 125 127 102 124 137 114 103 103 101 121 144 140 138 136 130 118 115 115 89 73
262 258 261 263 256 247 246 240 246 252 227 210 202 193 183 176 179 178 151 160 161 159 150 142 150 114 85 141 109 99 74 87 116 136 147 141 142 138 126 121 123 135 91
300 288 264 255 256 245 236 234 229 242 218 206 198 179 168 172 172 174 163 166 165 149 144 136 142 154 101 210 157 98 137 125 150 170 175 164 163 155 152 149 149 159 152
288 288 280 261 250 247 239 234 229 250 221 199 185 175 177 171 172 159 180 168 155 152 160 163 155 180 146 190 221 134 145 174 138 131 211 196 183 177 165 161 164 170 167
288 284 282 267 248 250 241 234 228 228 219 213 192 178 171 168 173 165 162 160 166 158 157 166 165 159 150 174 215 252 358 137 149 150 204 225 204 195 182 173 171 176 176
288 280 280 281 247 246 242 228 220 220 218 212 180 173 170 163 162 162 165 163 166 168 165 169 164 170 170 174 189 164 163 81 87 140 156 178 221 212 202 180 185 179 182
288 275 284 281 264 249 242 230 216 214 206 188 168 168 162 161 145 154 160 164 159 164 172 173 169 171 178 181 180 184 167 160 166 135 114 131 180 171 199 191 195 195 190